owner,sensor,date,latitude,longitude,air_temperature,qcFlag 
WAVCIS,ioos:station:WAVCIS:CSI03:1,2008-08-01T00:00:00Z,29.4412,-92.0613,27.64,11111222 
WAVCIS,ioos:station:WAVCIS:CSI03:1,2008-08-01T01:00:00Z,29.4412,-92.0613,27.73,11111222 
WAVCIS,ioos:station:WAVCIS:CSI03:1,2008-08-01T02:00:00Z,29.4412,-92.0613,27.76,11111222 
WAVCIS,ioos:station:WAVCIS:CSI03:1,2008-08-01T03:00:00Z,29.4412,-92.0613,28.5,11111222 
WAVCIS,ioos:station:WAVCIS:CSI03:1,2008-08-01T04:00:00Z,29.4412,-92.0613,28.47,11111222 
WAVCIS,ioos:station:WAVCIS:CSI03:1,2008-08-01T05:00:00Z,29.4412,-92.0613,29.05,11111222 
WAVCIS,ioos:station:WAVCIS:CSI03:1,2008-08-01T06:00:00Z,29.4412,-92.0613,29.65,11111222 
WAVCIS,ioos:station:WAVCIS:CSI03:1,2008-08-01T07:00:00Z,29.4412,-92.0613,30.21,11111222 
WAVCIS,ioos:station:WAVCIS:CSI03:1,2008-08-01T08:00:00Z,29.4412,-92.0613,31.37,11111222 
WAVCIS,ioos:station:WAVCIS:CSI03:1,2008-08-01T09:00:00Z,29.4412,-92.0613,30.21,11111222 
WAVCIS,ioos:station:WAVCIS:CSI03:1,2008-08-01T10:00:00Z,29.4412,-92.0613,29.72,11111222 
WAVCIS,ioos:station:WAVCIS:CSI03:1,2008-08-01T11:00:00Z,29.4412,-92.0613,29.57,11111222 
WAVCIS,ioos:station:WAVCIS:CSI03:1,2008-08-01T12:00:00Z,29.4412,-92.0613,29.59,11111222 
WAVCIS,ioos:station:WAVCIS:CSI03:1,2008-08-01T13:00:00Z,29.4412,-92.0613,29.84,11111222 
WAVCIS,ioos:station:WAVCIS:CSI03:1,2008-08-01T14:00:00Z,29.4412,-92.0613,29.11,11111222 
WAVCIS,ioos:station:WAVCIS:CSI03:1,2008-08-01T15:00:00Z,29.4412,-92.0613,29.88,11111222 
WAVCIS,ioos:station:WAVCIS:CSI03:1,2008-08-01T16:00:00Z,29.4412,-92.0613,30.19,11111222 
WAVCIS,ioos:station:WAVCIS:CSI03:1,2008-08-01T17:00:00Z,29.4412,-92.0613,30.15,11111222 
WAVCIS,ioos:station:WAVCIS:CSI03:1,2008-08-01T18:00:00Z,29.4412,-92.0613,30.72,11111222 
WAVCIS,ioos:station:WAVCIS:CSI03:1,2008-08-01T19:00:00Z,29.4412,-92.0613,30.83,11111222 
WAVCIS,ioos:station:WAVCIS:CSI03:1,2008-08-01T20:00:00Z,29.4412,-92.0613,30.83,11111222 
WAVCIS,ioos:station:WAVCIS:CSI03:1,2008-08-01T21:00:00Z,29.4412,-92.0613,30.69,11111222 
WAVCIS,ioos:station:WAVCIS:CSI03:1,2008-08-01T22:00:00Z,29.4412,-92.0613,30.76,11111222 
WAVCIS,ioos:station:WAVCIS:CSI03:1,2008-08-01T23:00:00Z,29.4412,-92.0613,30.6,11111222 
WAVCIS,ioos:station:WAVCIS:CSI03:1,2008-08-02T00:00:00Z,29.4412,-92.0613,31.12,11111222 
WAVCIS,ioos:station:WAVCIS:CSI03:1,2008-08-02T01:00:00Z,29.4412,-92.0613,31.1,11111222 
WAVCIS,ioos:station:WAVCIS:CSI03:1,2008-08-02T02:00:00Z,29.4412,-92.0613,31.4,11111222 
WAVCIS,ioos:station:WAVCIS:CSI03:1,2008-08-02T03:00:00Z,29.4412,-92.0613,30.97,11111222 
WAVCIS,ioos:station:WAVCIS:CSI03:1,2008-08-02T04:00:00Z,29.4412,-92.0613,29.93,11111222 
WAVCIS,ioos:station:WAVCIS:CSI03:1,2008-08-02T05:00:00Z,29.4412,-92.0613,29.74,11111222 
WAVCIS,ioos:station:WAVCIS:CSI03:1,2008-08-02T06:00:00Z,29.4412,-92.0613,29.85,11111222 
WAVCIS,ioos:station:WAVCIS:CSI03:1,2008-08-02T07:00:00Z,29.4412,-92.0613,29.71,11111222 
WAVCIS,ioos:station:WAVCIS:CSI03:1,2008-08-02T08:00:00Z,29.4412,-92.0613,29.56,11111222 
WAVCIS,ioos:station:WAVCIS:CSI03:1,2008-08-02T09:00:00Z,29.4412,-92.0613,29.62,11111222 
WAVCIS,ioos:station:WAVCIS:CSI03:1,2008-08-02T10:00:00Z,29.4412,-92.0613,29.18,11111222 
WAVCIS,ioos:station:WAVCIS:CSI03:1,2008-08-02T11:00:00Z,29.4412,-92.0613,29.08,11111222 
WAVCIS,ioos:station:WAVCIS:CSI03:1,2008-08-02T12:00:00Z,29.4412,-92.0613,29.03,11111222 
WAVCIS,ioos:station:WAVCIS:CSI03:1,2008-08-02T13:00:00Z,29.4412,-92.0613,29.12,11111222 
WAVCIS,ioos:station:WAVCIS:CSI03:1,2008-08-02T14:00:00Z,29.4412,-92.0613,29.27,11111222 
WAVCIS,ioos:station:WAVCIS:CSI03:1,2008-08-02T15:00:00Z,29.4412,-92.0613,29.55,11111222 
WAVCIS,ioos:station:WAVCIS:CSI03:1,2008-08-02T16:00:00Z,29.4412,-92.0613,29.41,11111222 
WAVCIS,ioos:station:WAVCIS:CSI03:1,2008-08-02T17:00:00Z,29.4412,-92.0613,29.8,11111222 
WAVCIS,ioos:station:WAVCIS:CSI03:1,2008-08-02T18:00:00Z,29.4412,-92.0613,29.78,11111222 
WAVCIS,ioos:station:WAVCIS:CSI03:1,2008-08-02T19:00:00Z,29.4412,-92.0613,29.71,11111222 
WAVCIS,ioos:station:WAVCIS:CSI03:1,2008-08-02T20:00:00Z,29.4412,-92.0613,29.8,11111222 
WAVCIS,ioos:station:WAVCIS:CSI03:1,2008-08-02T21:00:00Z,29.4412,-92.0613,30.0,11111222 
WAVCIS,ioos:station:WAVCIS:CSI03:1,2008-08-02T22:00:00Z,29.4412,-92.0613,30.45,11111222 
WAVCIS,ioos:station:WAVCIS:CSI03:1,2008-08-02T23:00:00Z,29.4412,-92.0613,31.1,11111222 
WAVCIS,ioos:station:WAVCIS:CSI03:1,2008-08-03T00:00:00Z,29.4412,-92.0613,30.93,11111222 
WAVCIS,ioos:station:WAVCIS:CSI03:1,2008-08-03T01:00:00Z,29.4412,-92.0613,30.6,11111222 
WAVCIS,ioos:station:WAVCIS:CSI03:1,2008-08-03T02:00:00Z,29.4412,-92.0613,30.11,11111222 
WAVCIS,ioos:station:WAVCIS:CSI03:1,2008-08-03T03:00:00Z,29.4412,-92.0613,29.86,11111222 
WAVCIS,ioos:station:WAVCIS:CSI03:1,2008-08-03T04:00:00Z,29.4412,-92.0613,29.68,11111222 
WAVCIS,ioos:station:WAVCIS:CSI03:1,2008-08-03T05:00:00Z,29.4412,-92.0613,29.51,11111222 
WAVCIS,ioos:station:WAVCIS:CSI03:1,2008-08-03T06:00:00Z,29.4412,-92.0613,29.41,11111222 
WAVCIS,ioos:station:WAVCIS:CSI03:1,2008-08-03T07:00:00Z,29.4412,-92.0613,29.37,11111222 
WAVCIS,ioos:station:WAVCIS:CSI03:1,2008-08-03T08:00:00Z,29.4412,-92.0613,29.66,11111222 
WAVCIS,ioos:station:WAVCIS:CSI03:1,2008-08-03T09:00:00Z,29.4412,-92.0613,29.17,11111222 
WAVCIS,ioos:station:WAVCIS:CSI03:1,2008-08-03T10:00:00Z,29.4412,-92.0613,29.01,11111222 
WAVCIS,ioos:station:WAVCIS:CSI03:1,2008-08-03T11:00:00Z,29.4412,-92.0613,25.73,11111222 
WAVCIS,ioos:station:WAVCIS:CSI03:1,2008-08-03T12:00:00Z,29.4412,-92.0613,26.54,11111222 
WAVCIS,ioos:station:WAVCIS:CSI03:1,2008-08-03T13:00:00Z,29.4412,-92.0613,26.8,11111222 
WAVCIS,ioos:station:WAVCIS:CSI03:1,2008-08-03T14:00:00Z,29.4412,-92.0613,28.51,11111222 
WAVCIS,ioos:station:WAVCIS:CSI03:1,2008-08-03T15:00:00Z,29.4412,-92.0613,27.78,11111222 
WAVCIS,ioos:station:WAVCIS:CSI03:1,2008-08-03T16:00:00Z,29.4412,-92.0613,28.43,11111222 
WAVCIS,ioos:station:WAVCIS:CSI03:1,2008-08-03T17:00:00Z,29.4412,-92.0613,28.1,11111222 
WAVCIS,ioos:station:WAVCIS:CSI03:1,2008-08-03T18:00:00Z,29.4412,-92.0613,28.32,11111222 
WAVCIS,ioos:station:WAVCIS:CSI03:1,2008-08-03T19:00:00Z,29.4412,-92.0613,29.16,11111222 
WAVCIS,ioos:station:WAVCIS:CSI03:1,2008-08-03T20:00:00Z,29.4412,-92.0613,29.63,11111222 
WAVCIS,ioos:station:WAVCIS:CSI03:1,2008-08-03T21:00:00Z,29.4412,-92.0613,30.54,11111222 
WAVCIS,ioos:station:WAVCIS:CSI03:1,2008-08-03T22:00:00Z,29.4412,-92.0613,30.62,11111222 
WAVCIS,ioos:station:WAVCIS:CSI03:1,2008-08-03T23:00:00Z,29.4412,-92.0613,32.0,11111222 
WAVCIS,ioos:station:WAVCIS:CSI03:1,2008-08-04T00:00:00Z,29.4412,-92.0613,31.83,11111222 
WAVCIS,ioos:station:WAVCIS:CSI03:1,2008-08-04T01:00:00Z,29.4412,-92.0613,30.71,11111222 
WAVCIS,ioos:station:WAVCIS:CSI03:1,2008-08-04T02:00:00Z,29.4412,-92.0613,29.89,11111222 
WAVCIS,ioos:station:WAVCIS:CSI03:1,2008-08-04T03:00:00Z,29.4412,-92.0613,29.25,11111222 
WAVCIS,ioos:station:WAVCIS:CSI03:1,2008-08-04T04:00:00Z,29.4412,-92.0613,29.12,11111222 
WAVCIS,ioos:station:WAVCIS:CSI03:1,2008-08-04T05:00:00Z,29.4412,-92.0613,28.99,11111222 
WAVCIS,ioos:station:WAVCIS:CSI03:1,2008-08-04T06:00:00Z,29.4412,-92.0613,28.33,11111222 
WAVCIS,ioos:station:WAVCIS:CSI03:1,2008-08-04T07:00:00Z,29.4412,-92.0613,27.97,11111222 
WAVCIS,ioos:station:WAVCIS:CSI03:1,2008-08-04T08:00:00Z,29.4412,-92.0613,27.54,11111222 
WAVCIS,ioos:station:WAVCIS:CSI03:1,2008-08-04T09:00:00Z,29.4412,-92.0613,27.16,11111222 
WAVCIS,ioos:station:WAVCIS:CSI03:1,2008-08-04T10:00:00Z,29.4412,-92.0613,26.92,11111222 
WAVCIS,ioos:station:WAVCIS:CSI03:1,2008-08-04T11:00:00Z,29.4412,-92.0613,27.16,11111222 
WAVCIS,ioos:station:WAVCIS:CSI03:1,2008-08-04T12:00:00Z,29.4412,-92.0613,27.02,11111222 
WAVCIS,ioos:station:WAVCIS:CSI03:1,2008-08-04T13:00:00Z,29.4412,-92.0613,27.07,11111222 
WAVCIS,ioos:station:WAVCIS:CSI03:1,2008-08-04T14:00:00Z,29.4412,-92.0613,27.47,11111222 
WAVCIS,ioos:station:WAVCIS:CSI03:1,2008-08-04T15:00:00Z,29.4412,-92.0613,27.49,11111222 
WAVCIS,ioos:station:WAVCIS:CSI03:1,2008-08-04T16:00:00Z,29.4412,-92.0613,28.08,11111222 
WAVCIS,ioos:station:WAVCIS:CSI03:1,2008-08-04T17:00:00Z,29.4412,-92.0613,28.76,11111222 
WAVCIS,ioos:station:WAVCIS:CSI03:1,2008-08-04T18:00:00Z,29.4412,-92.0613,29.37,11111222 
WAVCIS,ioos:station:WAVCIS:CSI03:1,2008-08-04T19:00:00Z,29.4412,-92.0613,26.35,11111222 
WAVCIS,ioos:station:WAVCIS:CSI03:1,2008-08-04T20:00:00Z,29.4412,-92.0613,26.97,11111222 
WAVCIS,ioos:station:WAVCIS:CSI03:1,2008-08-04T21:00:00Z,29.4412,-92.0613,27.74,11111222 
WAVCIS,ioos:station:WAVCIS:CSI03:1,2008-08-04T22:00:00Z,29.4412,-92.0613,27.98,11111222 
WAVCIS,ioos:station:WAVCIS:CSI03:1,2008-08-04T23:00:00Z,29.4412,-92.0613,28.01,11111222 
WAVCIS,ioos:station:WAVCIS:CSI03:1,2008-08-05T00:00:00Z,29.4412,-92.0613,27.51,11111222 
WAVCIS,ioos:station:WAVCIS:CSI03:1,2008-08-05T01:00:00Z,29.4412,-92.0613,27.09,11111222 
WAVCIS,ioos:station:WAVCIS:CSI03:1,2008-08-05T02:00:00Z,29.4412,-92.0613,26.22,11111222 
WAVCIS,ioos:station:WAVCIS:CSI03:1,2008-08-05T03:00:00Z,29.4412,-92.0613,24.79,11111222 
WAVCIS,ioos:station:WAVCIS:CSI03:1,2008-08-05T04:00:00Z,29.4412,-92.0613,24.67,11111222 
WAVCIS,ioos:station:WAVCIS:CSI03:1,2008-08-05T05:00:00Z,29.4412,-92.0613,25.38,11111222 
WAVCIS,ioos:station:WAVCIS:CSI03:1,2008-08-05T06:00:00Z,29.4412,-92.0613,25.99,11111222 
WAVCIS,ioos:station:WAVCIS:CSI03:1,2008-08-05T07:00:00Z,29.4412,-92.0613,26.2,11111222 
WAVCIS,ioos:station:WAVCIS:CSI03:1,2008-08-05T08:00:00Z,29.4412,-92.0613,26.81,11111222 
WAVCIS,ioos:station:WAVCIS:CSI03:1,2008-08-05T09:00:00Z,29.4412,-92.0613,26.67,11111222 
WAVCIS,ioos:station:WAVCIS:CSI03:1,2008-08-05T10:00:00Z,29.4412,-92.0613,26.32,11111222 
WAVCIS,ioos:station:WAVCIS:CSI03:1,2008-08-05T11:00:00Z,29.4412,-92.0613,28.09,11111222 
WAVCIS,ioos:station:WAVCIS:CSI03:1,2008-08-05T12:00:00Z,29.4412,-92.0613,26.43,11111222 
WAVCIS,ioos:station:WAVCIS:CSI03:1,2008-08-05T13:00:00Z,29.4412,-92.0613,28.43,11111222 
WAVCIS,ioos:station:WAVCIS:CSI03:1,2008-08-05T14:00:00Z,29.4412,-92.0613,28.56,11111222 
WAVCIS,ioos:station:WAVCIS:CSI03:1,2008-08-05T15:00:00Z,29.4412,-92.0613,28.4,11111222 
WAVCIS,ioos:station:WAVCIS:CSI03:1,2008-08-05T16:00:00Z,29.4412,-92.0613,27.97,11111222 
WAVCIS,ioos:station:WAVCIS:CSI03:1,2008-08-05T17:00:00Z,29.4412,-92.0613,28.19,11111222 
WAVCIS,ioos:station:WAVCIS:CSI03:1,2008-08-05T18:00:00Z,29.4412,-92.0613,28.97,11111222 
WAVCIS,ioos:station:WAVCIS:CSI03:1,2008-08-05T19:00:00Z,29.4412,-92.0613,28.67,11111222 
WAVCIS,ioos:station:WAVCIS:CSI03:1,2008-08-05T20:00:00Z,29.4412,-92.0613,28.64,11111222 
WAVCIS,ioos:station:WAVCIS:CSI03:1,2008-08-05T21:00:00Z,29.4412,-92.0613,28.24,11111222 
WAVCIS,ioos:station:WAVCIS:CSI03:1,2008-08-05T22:00:00Z,29.4412,-92.0613,27.94,11111222 
WAVCIS,ioos:station:WAVCIS:CSI03:1,2008-08-05T23:00:00Z,29.4412,-92.0613,27.79,11111222 
WAVCIS,ioos:station:WAVCIS:CSI03:1,2008-08-06T00:00:00Z,29.4412,-92.0613,28.64,11111222 
WAVCIS,ioos:station:WAVCIS:CSI03:1,2008-08-06T01:00:00Z,29.4412,-92.0613,27.72,11111222 
WAVCIS,ioos:station:WAVCIS:CSI03:1,2008-08-06T02:00:00Z,29.4412,-92.0613,27.71,11111222 
WAVCIS,ioos:station:WAVCIS:CSI03:1,2008-08-06T03:00:00Z,29.4412,-92.0613,28.04,11111222 
WAVCIS,ioos:station:WAVCIS:CSI03:1,2008-08-06T04:00:00Z,29.4412,-92.0613,28.13,11111222 
WAVCIS,ioos:station:WAVCIS:CSI03:1,2008-08-06T05:00:00Z,29.4412,-92.0613,27.82,11111222 
WAVCIS,ioos:station:WAVCIS:CSI03:1,2008-08-06T06:00:00Z,29.4412,-92.0613,29.91,11111222 
WAVCIS,ioos:station:WAVCIS:CSI03:1,2008-08-06T07:00:00Z,29.4412,-92.0613,29.15,11111222 
WAVCIS,ioos:station:WAVCIS:CSI03:1,2008-08-06T08:00:00Z,29.4412,-92.0613,29.62,11111222 
WAVCIS,ioos:station:WAVCIS:CSI03:1,2008-08-06T09:00:00Z,29.4412,-92.0613,28.84,11111222 
WAVCIS,ioos:station:WAVCIS:CSI03:1,2008-08-06T10:00:00Z,29.4412,-92.0613,29.61,11111222 
WAVCIS,ioos:station:WAVCIS:CSI03:1,2008-08-06T11:00:00Z,29.4412,-92.0613,28.9,11111222 
WAVCIS,ioos:station:WAVCIS:CSI03:1,2008-08-06T12:00:00Z,29.4412,-92.0613,28.58,11111222 
WAVCIS,ioos:station:WAVCIS:CSI03:1,2008-08-06T13:00:00Z,29.4412,-92.0613,28.96,11111222 
WAVCIS,ioos:station:WAVCIS:CSI03:1,2008-08-06T14:00:00Z,29.4412,-92.0613,29.45,11111222 
WAVCIS,ioos:station:WAVCIS:CSI03:1,2008-08-06T15:00:00Z,29.4412,-92.0613,29.16,11111222 
WAVCIS,ioos:station:WAVCIS:CSI03:1,2008-08-06T16:00:00Z,29.4412,-92.0613,29.46,11111222 
WAVCIS,ioos:station:WAVCIS:CSI03:1,2008-08-06T17:00:00Z,29.4412,-92.0613,28.87,11111222 
WAVCIS,ioos:station:WAVCIS:CSI03:1,2008-08-06T18:00:00Z,29.4412,-92.0613,29.66,11111222 
WAVCIS,ioos:station:WAVCIS:CSI03:1,2008-08-06T19:00:00Z,29.4412,-92.0613,30.55,11111222 
WAVCIS,ioos:station:WAVCIS:CSI03:1,2008-08-06T20:00:00Z,29.4412,-92.0613,30.25,11111222 
WAVCIS,ioos:station:WAVCIS:CSI03:1,2008-08-06T21:00:00Z,29.4412,-92.0613,30.61,11111222 
WAVCIS,ioos:station:WAVCIS:CSI03:1,2008-08-06T22:00:00Z,29.4412,-92.0613,30.16,11111222 
WAVCIS,ioos:station:WAVCIS:CSI03:1,2008-08-06T23:00:00Z,29.4412,-92.0613,30.11,11111222 
WAVCIS,ioos:station:WAVCIS:CSI03:1,2008-08-07T00:00:00Z,29.4412,-92.0613,30.02,11111222 
WAVCIS,ioos:station:WAVCIS:CSI03:1,2008-08-07T01:00:00Z,29.4412,-92.0613,29.73,11111222 
WAVCIS,ioos:station:WAVCIS:CSI03:1,2008-08-07T02:00:00Z,29.4412,-92.0613,29.51,11111222 
WAVCIS,ioos:station:WAVCIS:CSI03:1,2008-08-07T03:00:00Z,29.4412,-92.0613,29.5,11111222 
WAVCIS,ioos:station:WAVCIS:CSI03:1,2008-08-07T04:00:00Z,29.4412,-92.0613,29.38,11111222 
WAVCIS,ioos:station:WAVCIS:CSI03:1,2008-08-07T05:00:00Z,29.4412,-92.0613,29.21,11111222 
WAVCIS,ioos:station:WAVCIS:CSI03:1,2008-08-07T06:00:00Z,29.4412,-92.0613,29.01,11111222 
WAVCIS,ioos:station:WAVCIS:CSI03:1,2008-08-07T07:00:00Z,29.4412,-92.0613,29.11,11111222 
WAVCIS,ioos:station:WAVCIS:CSI03:1,2008-08-07T08:00:00Z,29.4412,-92.0613,28.96,11111222 
WAVCIS,ioos:station:WAVCIS:CSI03:1,2008-08-07T09:00:00Z,29.4412,-92.0613,29.02,11111222 
WAVCIS,ioos:station:WAVCIS:CSI03:1,2008-08-07T10:00:00Z,29.4412,-92.0613,28.93,11111222 
WAVCIS,ioos:station:WAVCIS:CSI03:1,2008-08-07T11:00:00Z,29.4412,-92.0613,28.29,11111222 
WAVCIS,ioos:station:WAVCIS:CSI03:1,2008-08-07T12:00:00Z,29.4412,-92.0613,28.3,11111222 
WAVCIS,ioos:station:WAVCIS:CSI03:1,2008-08-07T13:00:00Z,29.4412,-92.0613,29.08,11111222 
WAVCIS,ioos:station:WAVCIS:CSI03:1,2008-08-07T14:00:00Z,29.4412,-92.0613,28.53,11111222 
WAVCIS,ioos:station:WAVCIS:CSI03:1,2008-08-07T15:00:00Z,29.4412,-92.0613,28.81,11111222 
WAVCIS,ioos:station:WAVCIS:CSI03:1,2008-08-07T16:00:00Z,29.4412,-92.0613,29.3,11111222 
WAVCIS,ioos:station:WAVCIS:CSI03:1,2008-08-07T17:00:00Z,29.4412,-92.0613,30.19,11111222 
WAVCIS,ioos:station:WAVCIS:CSI03:1,2008-08-07T18:00:00Z,29.4412,-92.0613,31.11,11111222 
WAVCIS,ioos:station:WAVCIS:CSI03:1,2008-08-07T19:00:00Z,29.4412,-92.0613,30.85,11111222 
WAVCIS,ioos:station:WAVCIS:CSI03:1,2008-08-07T20:00:00Z,29.4412,-92.0613,30.68,11111222 
WAVCIS,ioos:station:WAVCIS:CSI03:1,2008-08-07T21:00:00Z,29.4412,-92.0613,29.89,11111222 
WAVCIS,ioos:station:WAVCIS:CSI03:1,2008-08-07T22:00:00Z,29.4412,-92.0613,30.75,11111222 
WAVCIS,ioos:station:WAVCIS:CSI03:1,2008-08-07T23:00:00Z,29.4412,-92.0613,30.11,11111222 
WAVCIS,ioos:station:WAVCIS:CSI03:1,2008-08-08T00:00:00Z,29.4412,-92.0613,30.14,11111222 
WAVCIS,ioos:station:WAVCIS:CSI03:1,2008-08-08T01:00:00Z,29.4412,-92.0613,29.99,11111222 
WAVCIS,ioos:station:WAVCIS:CSI03:1,2008-08-08T02:00:00Z,29.4412,-92.0613,30.15,11111222 
WAVCIS,ioos:station:WAVCIS:CSI03:1,2008-08-08T03:00:00Z,29.4412,-92.0613,29.66,11111222 
WAVCIS,ioos:station:WAVCIS:CSI03:1,2008-08-08T04:00:00Z,29.4412,-92.0613,29.58,11111222 
WAVCIS,ioos:station:WAVCIS:CSI03:1,2008-08-08T05:00:00Z,29.4412,-92.0613,29.61,11111222 
WAVCIS,ioos:station:WAVCIS:CSI03:1,2008-08-08T06:00:00Z,29.4412,-92.0613,29.27,11111222 
WAVCIS,ioos:station:WAVCIS:CSI03:1,2008-08-08T07:00:00Z,29.4412,-92.0613,28.99,11111222 
WAVCIS,ioos:station:WAVCIS:CSI03:1,2008-08-08T08:00:00Z,29.4412,-92.0613,28.82,11111222 
WAVCIS,ioos:station:WAVCIS:CSI03:1,2008-08-08T09:00:00Z,29.4412,-92.0613,28.76,11111222 
WAVCIS,ioos:station:WAVCIS:CSI03:1,2008-08-08T10:00:00Z,29.4412,-92.0613,28.92,11111222 
WAVCIS,ioos:station:WAVCIS:CSI03:1,2008-08-08T11:00:00Z,29.4412,-92.0613,28.72,11111222 
WAVCIS,ioos:station:WAVCIS:CSI03:1,2008-08-08T12:00:00Z,29.4412,-92.0613,28.7,11111222 
WAVCIS,ioos:station:WAVCIS:CSI03:1,2008-08-08T13:00:00Z,29.4412,-92.0613,28.1,11111222 
WAVCIS,ioos:station:WAVCIS:CSI03:1,2008-08-08T14:00:00Z,29.4412,-92.0613,27.31,11111222 
WAVCIS,ioos:station:WAVCIS:CSI03:1,2008-08-08T15:00:00Z,29.4412,-92.0613,26.69,11111222 
WAVCIS,ioos:station:WAVCIS:CSI03:1,2008-08-08T16:00:00Z,29.4412,-92.0613,26.7,11111222 
WAVCIS,ioos:station:WAVCIS:CSI03:1,2008-08-08T17:00:00Z,29.4412,-92.0613,24.01,11111222 
WAVCIS,ioos:station:WAVCIS:CSI03:1,2008-08-08T18:00:00Z,29.4412,-92.0613,24.31,11111222 
WAVCIS,ioos:station:WAVCIS:CSI03:1,2008-08-08T19:00:00Z,29.4412,-92.0613,24.71,11111222 
WAVCIS,ioos:station:WAVCIS:CSI03:1,2008-08-08T20:00:00Z,29.4412,-92.0613,24.21,11111222 
WAVCIS,ioos:station:WAVCIS:CSI03:1,2008-08-08T21:00:00Z,29.4412,-92.0613,24.73,11111222 
WAVCIS,ioos:station:WAVCIS:CSI03:1,2008-08-08T22:00:00Z,29.4412,-92.0613,25.0,11111222 
WAVCIS,ioos:station:WAVCIS:CSI03:1,2008-08-08T23:00:00Z,29.4412,-92.0613,25.56,11111222 
WAVCIS,ioos:station:WAVCIS:CSI03:1,2008-08-09T00:00:00Z,29.4412,-92.0613,25.62,11111222 
WAVCIS,ioos:station:WAVCIS:CSI03:1,2008-08-09T01:00:00Z,29.4412,-92.0613,25.73,11111222 
WAVCIS,ioos:station:WAVCIS:CSI03:1,2008-08-09T02:00:00Z,29.4412,-92.0613,26.08,11111222 
WAVCIS,ioos:station:WAVCIS:CSI03:1,2008-08-09T03:00:00Z,29.4412,-92.0613,26.01,11111222 
WAVCIS,ioos:station:WAVCIS:CSI03:1,2008-08-09T04:00:00Z,29.4412,-92.0613,25.62,11111222 
WAVCIS,ioos:station:WAVCIS:CSI03:1,2008-08-09T05:00:00Z,29.4412,-92.0613,25.76,11111222 
WAVCIS,ioos:station:WAVCIS:CSI03:1,2008-08-09T06:00:00Z,29.4412,-92.0613,25.77,11111222 
WAVCIS,ioos:station:WAVCIS:CSI03:1,2008-08-09T07:00:00Z,29.4412,-92.0613,25.69,11111222 
WAVCIS,ioos:station:WAVCIS:CSI03:1,2008-08-09T08:00:00Z,29.4412,-92.0613,25.7,11111222 
WAVCIS,ioos:station:WAVCIS:CSI03:1,2008-08-09T09:00:00Z,29.4412,-92.0613,25.66,11111222 
WAVCIS,ioos:station:WAVCIS:CSI03:1,2008-08-09T10:00:00Z,29.4412,-92.0613,25.58,11111222 
WAVCIS,ioos:station:WAVCIS:CSI03:1,2008-08-09T11:00:00Z,29.4412,-92.0613,25.38,11111222 
WAVCIS,ioos:station:WAVCIS:CSI03:1,2008-08-09T12:00:00Z,29.4412,-92.0613,25.17,11111222 
WAVCIS,ioos:station:WAVCIS:CSI03:1,2008-08-09T13:00:00Z,29.4412,-92.0613,25.33,11111222 
WAVCIS,ioos:station:WAVCIS:CSI03:1,2008-08-09T14:00:00Z,29.4412,-92.0613,26.05,11111222 
WAVCIS,ioos:station:WAVCIS:CSI03:1,2008-08-09T15:00:00Z,29.4412,-92.0613,27.86,11111222 
WAVCIS,ioos:station:WAVCIS:CSI03:1,2008-08-09T16:00:00Z,29.4412,-92.0613,28.98,11111222 
WAVCIS,ioos:station:WAVCIS:CSI03:1,2008-08-09T17:00:00Z,29.4412,-92.0613,28.86,11111222 
WAVCIS,ioos:station:WAVCIS:CSI03:1,2008-08-09T18:00:00Z,29.4412,-92.0613,28.0,11111222 
WAVCIS,ioos:station:WAVCIS:CSI03:1,2008-08-09T19:00:00Z,29.4412,-92.0613,27.7,11111222 
WAVCIS,ioos:station:WAVCIS:CSI03:1,2008-08-09T20:00:00Z,29.4412,-92.0613,29.6,11111222 
WAVCIS,ioos:station:WAVCIS:CSI03:1,2008-08-09T21:00:00Z,29.4412,-92.0613,29.65,11111222 
WAVCIS,ioos:station:WAVCIS:CSI03:1,2008-08-09T22:00:00Z,29.4412,-92.0613,30.52,11111222 
WAVCIS,ioos:station:WAVCIS:CSI03:1,2008-08-09T23:00:00Z,29.4412,-92.0613,31.13,11111222 
WAVCIS,ioos:station:WAVCIS:CSI03:1,2008-08-10T00:00:00Z,29.4412,-92.0613,30.41,11111222 
WAVCIS,ioos:station:WAVCIS:CSI03:1,2008-08-10T01:00:00Z,29.4412,-92.0613,29.77,11111222 
WAVCIS,ioos:station:WAVCIS:CSI03:1,2008-08-10T02:00:00Z,29.4412,-92.0613,29.27,11111222 
WAVCIS,ioos:station:WAVCIS:CSI03:1,2008-08-10T03:00:00Z,29.4412,-92.0613,29.25,11111222 
WAVCIS,ioos:station:WAVCIS:CSI03:1,2008-08-10T04:00:00Z,29.4412,-92.0613,29.63,11111222 
WAVCIS,ioos:station:WAVCIS:CSI03:1,2008-08-10T05:00:00Z,29.4412,-92.0613,29.64,11111222 
WAVCIS,ioos:station:WAVCIS:CSI03:1,2008-08-10T06:00:00Z,29.4412,-92.0613,29.24,11111222 
WAVCIS,ioos:station:WAVCIS:CSI03:1,2008-08-10T07:00:00Z,29.4412,-92.0613,29.08,11111222 
WAVCIS,ioos:station:WAVCIS:CSI03:1,2008-08-10T08:00:00Z,29.4412,-92.0613,29.09,11111222 
WAVCIS,ioos:station:WAVCIS:CSI03:1,2008-08-10T09:00:00Z,29.4412,-92.0613,29.06,11111222 
WAVCIS,ioos:station:WAVCIS:CSI03:1,2008-08-10T10:00:00Z,29.4412,-92.0613,28.67,11111222 
WAVCIS,ioos:station:WAVCIS:CSI03:1,2008-08-10T11:00:00Z,29.4412,-92.0613,28.99,11111222 
WAVCIS,ioos:station:WAVCIS:CSI03:1,2008-08-10T12:00:00Z,29.4412,-92.0613,29.12,11111222 
WAVCIS,ioos:station:WAVCIS:CSI03:1,2008-08-10T13:00:00Z,29.4412,-92.0613,29.64,11111222 
WAVCIS,ioos:station:WAVCIS:CSI03:1,2008-08-10T14:00:00Z,29.4412,-92.0613,29.95,11111222 
WAVCIS,ioos:station:WAVCIS:CSI03:1,2008-08-10T15:00:00Z,29.4412,-92.0613,30.19,11111222 
WAVCIS,ioos:station:WAVCIS:CSI03:1,2008-08-10T16:00:00Z,29.4412,-92.0613,30.12,11111222 
WAVCIS,ioos:station:WAVCIS:CSI03:1,2008-08-10T17:00:00Z,29.4412,-92.0613,30.6,11111222 
WAVCIS,ioos:station:WAVCIS:CSI03:1,2008-08-10T18:00:00Z,29.4412,-92.0613,30.69,11111222 
WAVCIS,ioos:station:WAVCIS:CSI03:1,2008-08-10T19:00:00Z,29.4412,-92.0613,30.51,11111222 
WAVCIS,ioos:station:WAVCIS:CSI03:1,2008-08-10T20:00:00Z,29.4412,-92.0613,30.15,11111222 
WAVCIS,ioos:station:WAVCIS:CSI03:1,2008-08-10T21:00:00Z,29.4412,-92.0613,30.89,11111222 
WAVCIS,ioos:station:WAVCIS:CSI03:1,2008-08-10T22:00:00Z,29.4412,-92.0613,30.72,11111222 
WAVCIS,ioos:station:WAVCIS:CSI03:1,2008-08-10T23:00:00Z,29.4412,-92.0613,30.89,11111222 
WAVCIS,ioos:station:WAVCIS:CSI03:1,2008-08-11T00:00:00Z,29.4412,-92.0613,30.8,11111222 
WAVCIS,ioos:station:WAVCIS:CSI03:1,2008-08-11T01:00:00Z,29.4412,-92.0613,30.63,11111222 
WAVCIS,ioos:station:WAVCIS:CSI03:1,2008-08-11T02:00:00Z,29.4412,-92.0613,30.19,11111222 
WAVCIS,ioos:station:WAVCIS:CSI03:1,2008-08-11T03:00:00Z,29.4412,-92.0613,30.58,11111222 
WAVCIS,ioos:station:WAVCIS:CSI03:1,2008-08-11T04:00:00Z,29.4412,-92.0613,29.79,11111222 
WAVCIS,ioos:station:WAVCIS:CSI03:1,2008-08-11T05:00:00Z,29.4412,-92.0613,29.77,11111222 
WAVCIS,ioos:station:WAVCIS:CSI03:1,2008-08-11T06:00:00Z,29.4412,-92.0613,29.5,11111222 
WAVCIS,ioos:station:WAVCIS:CSI03:1,2008-08-11T07:00:00Z,29.4412,-92.0613,29.48,11111222 
WAVCIS,ioos:station:WAVCIS:CSI03:1,2008-08-11T08:00:00Z,29.4412,-92.0613,29.89,11111222 
WAVCIS,ioos:station:WAVCIS:CSI03:1,2008-08-11T09:00:00Z,29.4412,-92.0613,29.88,11111222 
WAVCIS,ioos:station:WAVCIS:CSI03:1,2008-08-11T10:00:00Z,29.4412,-92.0613,29.98,11111222 
WAVCIS,ioos:station:WAVCIS:CSI03:1,2008-08-11T11:00:00Z,29.4412,-92.0613,30.19,11111222 
WAVCIS,ioos:station:WAVCIS:CSI03:1,2008-08-11T12:00:00Z,29.4412,-92.0613,29.01,11111222 
WAVCIS,ioos:station:WAVCIS:CSI03:1,2008-08-11T13:00:00Z,29.4412,-92.0613,29.92,11111222 
WAVCIS,ioos:station:WAVCIS:CSI03:1,2008-08-11T14:00:00Z,29.4412,-92.0613,30.82,11111222 
WAVCIS,ioos:station:WAVCIS:CSI03:1,2008-08-11T15:00:00Z,29.4412,-92.0613,30.45,11111222 
WAVCIS,ioos:station:WAVCIS:CSI03:1,2008-08-11T16:00:00Z,29.4412,-92.0613,30.62,11111222 
WAVCIS,ioos:station:WAVCIS:CSI03:1,2008-08-11T17:00:00Z,29.4412,-92.0613,31.27,11111222 
WAVCIS,ioos:station:WAVCIS:CSI03:1,2008-08-11T18:00:00Z,29.4412,-92.0613,31.94,11111222 
WAVCIS,ioos:station:WAVCIS:CSI03:1,2008-08-11T19:00:00Z,29.4412,-92.0613,31.78,11111222 
WAVCIS,ioos:station:WAVCIS:CSI03:1,2008-08-11T20:00:00Z,29.4412,-92.0613,30.56,11111222 
WAVCIS,ioos:station:WAVCIS:CSI03:1,2008-08-11T21:00:00Z,29.4412,-92.0613,30.58,11111222 
WAVCIS,ioos:station:WAVCIS:CSI03:1,2008-08-11T22:00:00Z,29.4412,-92.0613,31.77,11111222 
WAVCIS,ioos:station:WAVCIS:CSI03:1,2008-08-11T23:00:00Z,29.4412,-92.0613,32.02,11111222 
WAVCIS,ioos:station:WAVCIS:CSI03:1,2008-08-12T00:00:00Z,29.4412,-92.0613,31.8,11111222 
WAVCIS,ioos:station:WAVCIS:CSI03:1,2008-08-12T01:00:00Z,29.4412,-92.0613,30.14,11111222 
WAVCIS,ioos:station:WAVCIS:CSI03:1,2008-08-12T02:00:00Z,29.4412,-92.0613,30.52,11111222 
WAVCIS,ioos:station:WAVCIS:CSI03:1,2008-08-12T03:00:00Z,29.4412,-92.0613,30.53,11111222 
WAVCIS,ioos:station:WAVCIS:CSI03:1,2008-08-12T04:00:00Z,29.4412,-92.0613,30.17,11111222 